Jackson, WY

2:14 PM MST on December 06, 2019 (GMT -0700)
Jackson Hole

Weather History for KJAC - October, 2019

Change the Weather History Date:

Friday, October 11, 2019

  Actual Average Record
Temperature  
Mean Temperature 25 °F -  
Max Temperature 44 °F 58 °F 74 °F (1991)
Min Temperature 7 °F 23 °F 12 °F (1987)
Degree Days  
Heating Degree Days 40    
Moisture  
Dew Point 9 °F    
Average Humidity 60    
Maximum Humidity 84    
Minimum Humidity 26    
Precipitation  
Precipitation 0.00 in - - ()
Sea Level Pressure  
Sea Level Pressure 30.53 in    
Wind  
Wind Speed 3 mph ()    
Max Wind Speed 10 mph    
Max Gust Speed 17 mph    
Visibility 10.0 miles    
Events      
Averages and records for this station are not official NWS values.
T = Trace of Precipitation, MM = Missing Value Source: Averaged Metar Reports

Daily Weather History Graph

Daily Weather History Graph

Search for Another Location

Airport or City:

Astronomy

Oct. 11, 2019 Rise Set
Actual Time 7:32 AM MDT 6:46 PM MDT
Civil Twilight 7:03 AM MDT 7:15 PM MDT
Nautical Twilight 6:30 AM MDT 7:48 PM MDT
Astronomical Twilight 5:56 AM MDT 8:21 PM MDT
Moon 6:22 PM MDT (10/11) 5:09 AM MDT (10/11)
Length of Visible Light 12h 11m
Length of Day
11h 14m
Waxing Gibbous, 96% of the Moon is Illuminated
Oct 11
Waxing Gibbous
Oct 13
Full
Oct 21
Last Quarter
Oct 27
New
Nov 4
First Quarter

Hourly Weather History & Observations

Time (MDT) Temp. Windchill Dew Point Humidity Pressure Visibility Wind Dir Wind Speed Gust Speed Precip Events Conditions
12:56 AM 12.0 °F - 6.1 °F 77% 30.56 in 10.0 mi Calm Calm - N/A   Clear
1:56 AM 10.0 °F 3.6 °F 6.1 °F 84% 30.57 in 10.0 mi Variable 3.5 mph - N/A   Clear
2:56 AM 10.0 °F 3.6 °F 6.1 °F 84% 30.57 in 10.0 mi NNE 3.5 mph - N/A   Clear
3:56 AM 7.0 °F -3.3 °F 3.0 °F 84% 30.58 in 10.0 mi NNE 5.8 mph - N/A   Clear
4:56 AM 8.1 °F 1.4 °F 3.9 °F 83% 30.58 in 10.0 mi ENE 3.5 mph - N/A   Clear
5:56 AM 8.1 °F 1.4 °F 3.9 °F 83% 30.60 in 10.0 mi NE 3.5 mph - N/A   Clear
6:56 AM 7.0 °F 0.1 °F 1.9 °F 80% 30.63 in 10.0 mi NE 3.5 mph - N/A   Clear
7:56 AM 8.1 °F 1.4 °F 3.0 °F 80% 30.67 in 10.0 mi NNE 3.5 mph - N/A   Clear
8:56 AM 14.0 °F - 8.1 °F 77% 30.66 in 10.0 mi Calm Calm - N/A   Clear
9:56 AM 19.9 °F - 10.0 °F 65% 30.63 in 10.0 mi Calm Calm - N/A   Clear
10:56 AM 24.1 °F 19.7 °F 10.0 °F 55% 30.62 in 10.0 mi SE 3.5 mph - N/A   Clear
11:56 AM 28.0 °F 20.8 °F 12.0 °F 51% 30.61 in 10.0 mi SW 6.9 mph - N/A   Clear
12:56 PM 32.0 °F 24.8 °F 12.0 °F 44% 30.56 in 10.0 mi SSW 8.1 mph - N/A   Clear
1:56 PM 35.1 °F 30.1 °F 10.9 °F 37% 30.52 in 10.0 mi Variable 5.8 mph - N/A   Clear
2:56 PM 39.9 °F - 10.9 °F 31% 30.46 in 10.0 mi Calm Calm - N/A   Clear
3:56 PM 42.1 °F 37.7 °F 10.9 °F 28% 30.44 in 10.0 mi SW 6.9 mph - N/A   Clear
4:56 PM 43.0 °F 37.2 °F 10.9 °F 27% 30.41 in 10.0 mi SW 10.4 mph 17.3 mph N/A   Clear
5:56 PM 41.0 °F 35.2 °F 8.1 °F 26% 30.41 in 10.0 mi West 9.2 mph - N/A   Clear
6:56 PM 35.1 °F 31.0 °F 8.1 °F 33% 30.44 in 10.0 mi SW 4.6 mph - N/A   Clear
7:56 PM 34.0 °F 31.0 °F 10.9 °F 38% 30.44 in 10.0 mi SE 3.5 mph - N/A   Clear
8:56 PM 24.1 °F 15.2 °F 14.0 °F 65% 30.46 in 10.0 mi NNE 8.1 mph - N/A   Clear
9:56 PM 21.0 °F 16.2 °F 14.0 °F 74% 30.45 in 10.0 mi NE 3.5 mph - N/A   Clear
10:56 PM 21.0 °F 14.6 °F 12.9 °F 71% 30.42 in 10.0 mi NE 4.6 mph - N/A   Clear
11:56 PM 21.0 °F 14.6 °F 14.0 °F 74% 30.39 in 10.0 mi NNE 4.6 mph - N/A   Clear